Regional Weather Roundup
Issued by NWS

Current Version | Previous Version | Text Only | Print | Product List | Glossary Off
Versions: 1 2 3 4 5 6 7 8 9 10 11 12 13 14 15 16 17 18 19 20 21 22 23 24 25 26 27

000
ASUS42 KFFC 250903
RWRGA
WEATHER ROUNDUP FOR GEORGIA
NATIONAL WEATHER SERVICE PEACHTREE CITY GA
500 AM EDT SAT OCT 25 2014

NOTE: "FAIR" INDICATES FEW OR NO CLOUDS BELOW 12,000 FEET WITH NO
SIGNIFICANT WEATHER AND/OR OBSTRUCTIONS TO VISIBILITY.

* = USE WITH CAUTION. THE STATIONS MARKED WITH AN ASTERISK MAY NOT
REPORT WEATHER SUCH AS PRECIPITATION, FOG, OR THUNDER AND ARE NOT
QUALITY CONTROLLED BY NWS.

THE REMARK "TC" DENOTES TEMPERATURE READING IN DEGREES CELSIUS.

GAZ001>058-251000-
NORTH GEORGIA

CITY           SKY/WX    TMP DP  RH WIND       PRES   REMARKS
ATLANTA        CLEAR     51  43  74 NW12      30.02S
ATHENS         CLEAR     45  43  93 CALM      30.00F
CHAMBLEE       CLEAR     43  40  89 CALM      30.02S
PEACHTREE CITY CLEAR     43  42  97 CALM      30.03S
ROME           CLEAR     42  41  96 CALM      30.05F
WEST ATLANTA   CLEAR     50  42  74 NW6       30.03S
GAINESVILLE    CLEAR     47  42  83 CALM      30.03S
CARTERSVILLE   CLEAR     39  38  96 CALM      30.06S


CITY           SKY/WX    TMP DP  RH WIND       PRES   REMARKS
DALTON*        CLEAR     43  43 100 NW5       30.05S
MARIETTA       CLEAR     47  43  84 W5        30.03R
$$

GAZ059>098-102>109-251000-
CENTRAL GEORGIA

CITY           SKY/WX    TMP DP  RH WIND       PRES   REMARKS
AUGUSTA-BUSH   CLEAR     41  40  96 CALM      30.01R
AUGUSTA-DANIEL CLEAR     52  48  86 N3        30.01S
COLUMBUS       CLEAR     53  44  71 N5        30.02S
MACON          CLEAR     44  43  96 CALM      30.00S
ROBINS AFB     CLEAR     45  44  96 CALM      29.99S


CITY           SKY/WX    TMP DP  RH WIND       PRES   REMARKS
LAGRANGE*      CLEAR     44  43  97 CALM      30.04S
SYLVANIA*      CLEAR     48  47  97 CALM      30.00S
MILLEDGEVILLE* CLEAR     46  46 100 CALM      30.00S
$$

GAZ099>101-110>166-251000-
SOUTH GEORGIA

CITY           SKY/WX    TMP DP  RH WIND       PRES   REMARKS
SAVANNAH       CLEAR     51  46  83 W3        30.00R
VALDOSTA       CLEAR     46  41  82 CALM      29.99F HAZE
ALMA           CLEAR     46  44  93 CALM      29.99F FOG
ST SIMONS      CLEAR     51  50  96 CALM      29.99R
FT STEWART     CLEAR     46  44  93 CALM      29.98S
ALBANY         CLEAR     48  45  89 CALM      30.02F
HUNTER AFB     CLEAR     47  46  95 W5        29.98R
MOODY AFB      CLEAR     46  44  92 N1        30.00R
BRUNSWICK        N/A     46  45  93 CALM      30.00S VSB 3/4


CITY           SKY/WX    TMP DP  RH WIND       PRES   REMARKS
BAINBRIDGE*    CLEAR     48  46  93 CALM      30.00F
MOULTRIE*      CLEAR     50  48  93 CALM      30.00F
VIDALIA*       CLEAR     46  45  93 CALM      30.00R
WAYCROSS*      CLEAR     48  47  95 CALM      30.00S
DOUGLAS*       CLEAR     48  46  93 CALM      30.01F
$$



USA.gov is the U.S. government's official web portal to all federal, state and local government web resources and services.